Tucson, AZ

6:43 AM MST on July 22, 2017 (GMT -0700)
Tucson International

Weather History for KTUS - July, 2013

Change the Weather History Date:

Monday, July 1, 2013

  Actual Average Record
Temperature  
Mean Temperature 93 °F 88 °F  
Max Temperature 107 °F 102 °F 111 °F (1990)
Min Temperature 79 °F 73 °F 58 °F (1913)
Degree Days  
Heating Degree Days 0 0  
Month to date heating degree days 0 0  
Since 1 June heating degree days 0 0  
Since 1 July heating degree days 0 0  
Cooling Degree Days 28 23  
Month to date cooling degree days 28 23  
Year to date cooling degree days 1480 1119  
Since 1 June cooling degree days 769 617  
Growing Degree Days 43 (Base 50)    
Moisture  
Dew Point 54 °F    
Average Humidity 34    
Maximum Humidity 54    
Minimum Humidity 14    
Precipitation  
Precipitation T in 0.03 in 0.83 in (2016)
Month to date precipitation T 0.03  
Year to date precipitation 1.77 3.30  
Snow  
Snow 0.00 in - - ()
Month to date snowfall 0.0  
Snow Depth 0.00 in    
Sea Level Pressure  
Sea Level Pressure 29.80 in    
Wind  
Wind Speed 8 mph (ESE)    
Max Wind Speed 35 mph    
Max Gust Speed 46 mph    
Visibility 10 miles    
Events Rain , Thunderstorm    
T = Trace of Precipitation, MM = Missing Value Source: NWS Daily Summary

Daily Weather History Graph

Daily Weather History Graph

Search for Another Location

Airport or City:

Trip Planner

Search our weather history database for the weather conditions in past years. The results will help you decide how hot, cold, wet, or windy it might be!

Date:

Astronomy

Jul. 01, 2013 Rise Set
Actual Time 5:21 AM MST 7:34 PM MST
Civil Twilight 4:52 AM MST 8:02 PM MST
Nautical Twilight 4:18 AM MST 8:36 PM MST
Astronomical Twilight 3:41 AM MST 9:13 PM MST
Moon 12:39 AM MST (7/1) 2:03 PM MST (7/1)
Length of Visible Light 15h 09m
Length of Day
14h 12m
Waning Crescent, 34% of the Moon is Illuminated
Jul 1
Waning Crescent
Jul 8
New
Jul 15
First Quarter
Jul 22
Full
Jul 29
Last Quarter

Hourly Weather History & Observations

Time (MST) Temp. Heat Index Dew Point Humidity Pressure Visibility Wind Dir Wind Speed Gust Speed Precip Events Conditions
12:50 AM 80.6 °F 81.1 °F 59.0 °F 48% 29.98 in 10.0 mi SE 12.7 mph 19.6 mph N/A   Clear
12:53 AM 81.0 °F 81.3 °F 59.0 °F 47% 29.81 in 10.0 mi East 12.7 mph - N/A   Clear
1:53 AM 80.1 °F 80.9 °F 60.1 °F 50% 29.80 in 10.0 mi SSE 10.4 mph - N/A   Clear
2:53 AM 80.1 °F 81.1 °F 61.0 °F 52% 29.81 in 10.0 mi ESE 9.2 mph - N/A   Clear
3:53 AM 82.0 °F 82.1 °F 59.0 °F 45% 29.79 in 10.0 mi ESE 8.1 mph - N/A   Clear
4:53 AM 81.0 °F 81.3 °F 59.0 °F 47% 29.79 in 10.0 mi SSE 6.9 mph - N/A   Clear
5:53 AM 80.1 °F 80.9 °F 60.1 °F 50% 29.81 in 10.0 mi East 6.9 mph - N/A   Clear
6:53 AM 80.1 °F 81.2 °F 62.1 °F 54% 29.85 in 10.0 mi SSE 5.8 mph - N/A   Clear
7:53 AM 82.0 °F 83.0 °F 62.1 °F 51% 29.85 in 10.0 mi South 8.1 mph - N/A   Clear
8:53 AM 89.1 °F 88.2 °F 59.0 °F 36% 29.85 in 10.0 mi South 5.8 mph - N/A   Clear
9:53 AM 93.9 °F 92.2 °F 55.9 °F 28% 29.83 in 10.0 mi South 9.2 mph - N/A   Clear
10:53 AM 96.1 °F 93.5 °F 53.1 °F 23% 29.81 in 10.0 mi Calm Calm - N/A   Clear
11:53 AM 100.0 °F - 51.1 °F 19% 29.80 in 10.0 mi Calm Calm - N/A   Clear
12:53 PM 102.0 °F - 50.0 °F 17% 29.77 in 10.0 mi NE 4.6 mph - N/A   Clear
1:53 PM 105.1 °F - 48.0 °F 15% 29.74 in 10.0 mi NE 9.2 mph - N/A   Clear
2:53 PM 102.9 °F - 46.9 °F 15% 29.72 in 10.0 mi North 4.6 mph - N/A   Partly Cloudy
3:53 PM 105.1 °F - 46.0 °F 14% 29.68 in 10.0 mi Calm Calm - N/A   Clear
4:44 PM 102.9 °F - 46.9 °F 15% 29.87 in 10.0 mi North 13.8 mph - N/A Thunderstorm Thunderstorm
4:53 PM 102.9 °F - 46.9 °F 15% 29.71 in 10.0 mi NNE 6.9 mph - N/A Thunderstorm Thunderstorm
5:27 PM 97.0 °F - 51.1 °F 21% 29.87 in 10.0 mi North 12.7 mph 20.7 mph N/A Thunderstorm Partly Cloudy
5:53 PM 98.1 °F - 50.0 °F 20% 29.73 in 10.0 mi NNE 23.0 mph 29.9 mph N/A Thunderstorm Thunderstorm
6:29 PM 93.0 °F - 48.0 °F 21% 29.87 in 10.0 mi WNW 19.6 mph 29.9 mph 0.00 in   Partly Cloudy
6:53 PM 96.1 °F - 45.0 °F 17% 29.71 in 10.0 mi West 5.8 mph - 0.00 in   Clear
7:53 PM 93.9 °F - 50.0 °F 22% 29.73 in 10.0 mi ENE 11.5 mph - N/A   Clear
8:30 PM 93.9 °F - 51.1 °F 23% 29.91 in 10.0 mi SE 3.5 mph - N/A Thunderstorm Clear
8:53 PM 93.0 °F - 52.0 °F 25% 29.76 in 10.0 mi ESE 10.4 mph - N/A Thunderstorm Clear
9:05 PM 91.9 °F 89.5 °F 54.0 °F 27% 29.92 in 10.0 mi ESE 20.7 mph 31.1 mph 0.00 in Rain , Thunderstorm Light Thunderstorms and Rain
9:20 PM 91.0 °F 89.2 °F 55.9 °F 30% 29.93 in 10.0 mi East 13.8 mph - 0.00 in Thunderstorm Scattered Clouds
9:53 PM 91.0 °F 88.7 °F 54.0 °F 28% 29.78 in 10.0 mi ESE 17.3 mph - 0.00 in   Partly Cloudy
10:53 PM 89.1 °F 87.7 °F 57.0 °F 34% 29.79 in 10.0 mi East 8.1 mph - N/A   Partly Cloudy
11:53 PM 88.0 °F 86.7 °F 57.0 °F 35% 29.79 in 10.0 mi ESE 11.5 mph - N/A   Clear